Time,TemperatureF,DewpointF,PressureIn,WindDirection,WindDirectionDegrees,WindSpeedMPH,WindSpeedGustMPH,Humidity,HourlyPrecipIn,Conditions,Clouds,dailyrainin,SoftwareType,DateUTC
2013-12-04 00:00:00,37.0,33.8,30.05,SW,236,0.0,0.0,88,0.00,,---,0.00,VWS V14.01,2013-12-04 05:00:00,
2013-12-04 00:01:00,37.0,33.8,30.05,SW,236,0.0,0.0,88,0.00,,---,0.00,VWS V14.01,2013-12-04 05:01:00,
2013-12-04 00:06:00,37.1,33.9,30.05,SW,236,0.0,0.0,88,0.00,,---,0.00,VWS V14.01,2013-12-04 05:06:00,
2013-12-04 00:11:00,37.2,34.0,30.05,SW,236,0.0,0.0,88,0.00,,---,0.00,VWS V14.01,2013-12-04 05:11:00,
2013-12-04 00:16:00,37.2,34.0,30.05,SW,236,0.0,0.0,88,0.00,,---,0.00,VWS V14.01,2013-12-04 05:16:00,
2013-12-04 00:21:00,37.3,34.1,30.05,SW,236,0.0,0.0,88,0.00,,---,0.00,VWS V14.01,2013-12-04 05:21:00,
2013-12-04 00:26:00,37.3,34.1,30.05,SW,236,0.0,0.0,88,0.00,,---,0.00,VWS V14.01,2013-12-04 05:26:00,
2013-12-04 00:31:00,37.4,34.2,30.05,SW,236,0.0,0.0,88,0.00,,---,0.00,VWS V14.01,2013-12-04 05:31:00,
2013-12-04 00:36:00,37.5,34.3,30.05,SW,236,0.0,0.0,88,0.00,,---,0.00,VWS V14.01,2013-12-04 05:36:00,
2013-12-04 00:41:00,37.6,34.4,30.05,SW,236,0.0,0.0,88,0.00,,---,0.00,VWS V14.01,2013-12-04 05:41:00,
2013-12-04 00:46:00,37.7,34.8,30.05,SW,236,0.0,0.0,89,0.00,,---,0.00,VWS V14.01,2013-12-04 05:46:00,
2013-12-04 00:51:00,37.8,34.9,30.05,SW,236,0.0,0.0,89,0.00,,---,0.00,VWS V14.01,2013-12-04 05:51:00,
2013-12-04 00:56:00,37.9,35.0,30.05,SW,236,0.0,0.0,89,0.00,,---,0.00,VWS V14.01,2013-12-04 05:56:00,
2013-12-04 01:01:00,37.9,34.7,30.05,SW,236,0.0,0.0,88,0.00,,---,0.00,VWS V14.01,2013-12-04 06:01:00,
2013-12-04 01:06:00,38.0,34.8,30.06,SW,236,0.0,0.0,88,0.00,,---,0.00,VWS V14.01,2013-12-04 06:06:00,
2013-12-04 01:11:00,38.0,34.8,30.06,SW,236,0.0,0.0,88,0.00,,---,0.00,VWS V14.01,2013-12-04 06:11:00,
2013-12-04 01:16:00,38.1,34.9,30.07,SW,236,0.0,0.0,88,0.00,,---,0.00,VWS V14.01,2013-12-04 06:16:00,
2013-12-04 01:21:00,38.1,34.9,30.07,SW,236,0.0,0.0,88,0.00,,---,0.00,VWS V14.01,2013-12-04 06:21:00,
2013-12-04 01:26:00,38.2,35.0,30.07,SW,236,0.0,0.0,88,0.00,,---,0.00,VWS V14.01,2013-12-04 06:26:00,
2013-12-04 01:31:00,38.3,35.1,30.07,SW,236,0.0,0.0,88,0.00,,---,0.00,VWS V14.01,2013-12-04 06:31:00,
2013-12-04 01:36:00,38.4,35.2,30.07,SW,236,0.0,0.0,88,0.00,,---,0.00,VWS V14.01,2013-12-04 06:36:00,
2013-12-04 01:41:00,38.4,35.2,30.07,SW,236,0.0,0.0,88,0.00,,---,0.00,VWS V14.01,2013-12-04 06:41:00,
2013-12-04 01:46:00,38.5,35.0,30.07,SW,236,0.0,0.0,87,0.00,,---,0.00,VWS V14.01,2013-12-04 06:46:00,
2013-12-04 01:51:00,38.5,35.0,30.07,SW,236,0.0,0.0,87,0.00,,---,0.00,VWS V14.01,2013-12-04 06:51:00,
2013-12-04 01:56:00,38.5,35.3,30.07,SW,236,0.0,0.0,88,0.00,,---,0.00,VWS V14.01,2013-12-04 06:56:00,
2013-12-04 02:01:00,38.6,35.4,30.07,SW,236,0.0,0.0,88,0.00,,---,0.00,VWS V14.01,2013-12-04 07:01:00,
2013-12-04 02:06:00,38.5,35.0,30.07,SW,236,0.0,0.0,87,0.00,,---,0.00,VWS V14.01,2013-12-04 07:06:00,
2013-12-04 02:11:00,38.5,35.0,30.07,SW,236,0.0,0.0,87,0.00,,---,0.00,VWS V14.01,2013-12-04 07:11:00,
2013-12-04 02:16:00,38.6,35.1,30.07,SW,236,0.0,0.0,87,0.00,,---,0.00,VWS V14.01,2013-12-04 07:16:00,
2013-12-04 02:21:00,38.6,35.1,30.07,SW,236,0.0,0.0,87,0.00,,---,0.00,VWS V14.01,2013-12-04 07:21:00,
2013-12-04 02:26:00,38.6,35.1,30.08,SW,236,0.0,0.0,87,0.00,,---,0.00,VWS V14.01,2013-12-04 07:26:00,
2013-12-04 02:31:00,38.5,35.0,30.07,SW,236,0.0,0.0,87,0.00,,---,0.00,VWS V14.01,2013-12-04 07:31:00,
2013-12-04 02:36:00,38.5,34.7,30.08,SW,236,0.0,0.0,86,0.00,,---,0.00,VWS V14.01,2013-12-04 07:36:00,
2013-12-04 02:41:00,38.5,34.7,30.07,SW,236,0.0,0.0,86,0.00,,---,0.00,VWS V14.01,2013-12-04 07:41:00,
2013-12-04 02:46:00,38.4,34.6,30.08,SW,236,0.0,0.0,86,0.00,,---,0.00,VWS V14.01,2013-12-04 07:46:00,
2013-12-04 02:51:00,38.5,34.7,30.07,SW,236,0.0,0.0,86,0.00,,---,0.00,VWS V14.01,2013-12-04 07:51:00,
2013-12-04 02:56:00,38.5,34.7,30.07,SW,236,0.0,0.0,86,0.00,,---,0.00,VWS V14.01,2013-12-04 07:56:00,
2013-12-04 03:01:00,38.5,34.4,30.07,SW,236,0.0,0.0,85,0.00,,---,0.00,VWS V14.01,2013-12-04 08:01:00,
2013-12-04 03:06:00,38.4,34.3,30.07,SW,236,0.0,0.0,85,0.00,,---,0.00,VWS V14.01,2013-12-04 08:06:00,
2013-12-04 03:11:00,38.4,34.3,30.07,SW,236,0.0,0.0,85,0.00,,---,0.00,VWS V14.01,2013-12-04 08:11:00,
2013-12-04 03:16:00,38.3,34.2,30.08,SW,236,0.0,0.0,85,0.00,,---,0.00,VWS V14.01,2013-12-04 08:16:00,
2013-12-04 03:21:00,38.2,34.1,30.08,SW,236,0.0,0.0,85,0.00,,---,0.00,VWS V14.01,2013-12-04 08:21:00,
2013-12-04 03:26:00,38.1,34.0,30.08,SW,236,0.0,0.0,85,0.00,,---,0.00,VWS V14.01,2013-12-04 08:26:00,
2013-12-04 03:31:00,38.0,33.9,30.08,SW,236,0.0,0.0,85,0.00,,---,0.00,VWS V14.01,2013-12-04 08:31:00,
2013-12-04 03:36:00,37.9,33.8,30.09,SW,236,0.0,0.0,85,0.00,,---,0.00,VWS V14.01,2013-12-04 08:36:00,
2013-12-04 03:41:00,37.8,33.7,30.08,SW,236,0.0,0.0,85,0.00,,---,0.00,VWS V14.01,2013-12-04 08:41:00,
2013-12-04 03:46:00,37.8,33.7,30.08,SW,236,0.0,0.0,85,0.00,,---,0.00,VWS V14.01,2013-12-04 08:46:00,
2013-12-04 03:51:00,37.7,33.6,30.08,SW,236,0.0,0.0,85,0.00,,---,0.00,VWS V14.01,2013-12-04 08:51:00,
2013-12-04 03:56:00,37.5,33.4,30.08,SW,236,0.0,0.0,85,0.00,,---,0.00,VWS V14.01,2013-12-04 08:56:00,
2013-12-04 04:01:00,37.4,33.6,30.09,SW,236,0.0,0.0,86,0.00,,---,0.00,VWS V14.01,2013-12-04 09:01:00,
2013-12-04 04:06:00,37.4,33.6,30.09,SW,236,0.0,0.0,86,0.00,,---,0.00,VWS V14.01,2013-12-04 09:06:00,
2013-12-04 04:11:00,37.3,33.5,30.10,SW,236,0.0,0.0,86,0.00,,---,0.00,VWS V14.01,2013-12-04 09:11:00,
2013-12-04 04:16:00,37.2,33.7,30.10,SW,236,0.0,0.0,87,0.00,,---,0.00,VWS V14.01,2013-12-04 09:16:00,
2013-12-04 04:21:00,37.2,33.7,30.10,SW,236,0.0,0.0,87,0.00,,---,0.00,VWS V14.01,2013-12-04 09:21:00,
2013-12-04 04:26:00,37.1,33.6,30.10,SW,236,0.0,0.0,87,0.00,,---,0.00,VWS V14.01,2013-12-04 09:26:00,
2013-12-04 04:31:00,37.0,33.5,30.10,SW,236,0.0,0.0,87,0.00,,---,0.00,VWS V14.01,2013-12-04 09:31:00,
2013-12-04 04:36:00,36.9,33.4,30.10,SW,236,0.0,0.0,87,0.00,,---,0.00,VWS V14.01,2013-12-04 09:36:00,
2013-12-04 04:41:00,36.8,33.3,30.10,SW,236,0.0,0.0,87,0.00,,---,0.00,VWS V14.01,2013-12-04 09:41:00,
2013-12-04 04:46:00,36.7,33.5,30.10,SW,236,0.0,0.0,88,0.00,,---,0.00,VWS V14.01,2013-12-04 09:46:00,
2013-12-04 04:51:00,36.7,33.5,30.10,SW,236,0.0,0.0,88,0.00,,---,0.00,VWS V14.01,2013-12-04 09:51:00,
2013-12-04 04:56:00,36.7,33.5,30.10,SW,236,0.0,0.0,88,0.00,,---,0.00,VWS V14.01,2013-12-04 09:56:00,
2013-12-04 05:01:00,36.7,33.5,30.10,SW,236,0.0,0.0,88,0.00,,---,0.00,VWS V14.01,2013-12-04 10:01:00,
2013-12-04 05:06:00,36.7,33.5,30.10,SW,236,0.0,0.0,88,0.00,,---,0.00,VWS V14.01,2013-12-04 10:06:00,
2013-12-04 05:11:00,36.6,33.4,30.10,SW,236,0.0,0.0,88,0.00,,---,0.00,VWS V14.01,2013-12-04 10:11:00,
2013-12-04 05:16:00,36.6,33.4,30.10,SW,236,0.0,0.0,88,0.00,,---,0.00,VWS V14.01,2013-12-04 10:16:00,
2013-12-04 05:21:00,36.7,33.5,30.09,SW,236,0.0,0.0,88,0.00,,---,0.00,VWS V14.01,2013-12-04 10:21:00,
2013-12-04 05:26:00,36.8,33.6,30.09,SW,236,0.0,0.0,88,0.00,,---,0.00,VWS V14.01,2013-12-04 10:26:00,
2013-12-04 05:31:00,36.8,33.6,30.09,SW,236,0.0,0.0,88,0.00,,---,0.00,VWS V14.01,2013-12-04 10:31:00,
2013-12-04 05:36:00,36.9,33.7,30.09,SW,236,0.0,0.0,88,0.00,,---,0.00,VWS V14.01,2013-12-04 10:36:00,
2013-12-04 05:41:00,36.9,33.7,30.10,SW,236,0.0,0.0,88,0.00,,---,0.00,VWS V14.01,2013-12-04 10:41:00,
2013-12-04 05:46:00,36.9,33.7,30.10,SW,236,0.0,0.0,88,0.00,,---,0.00,VWS V14.01,2013-12-04 10:46:00,
2013-12-04 05:51:00,36.9,33.7,30.10,SW,236,0.0,0.0,88,0.00,,---,0.00,VWS V14.01,2013-12-04 10:51:00,
2013-12-04 05:56:00,36.8,33.6,30.09,NNW,338,2.0,2.0,88,0.00,,---,0.00,VWS V14.01,2013-12-04 10:56:00,
2013-12-04 06:01:00,36.6,33.4,30.09,NNW,338,2.0,3.0,88,0.00,,---,0.00,VWS V14.01,2013-12-04 11:01:00,
2013-12-04 06:06:00,36.5,33.0,30.09,NNW,338,0.0,2.0,87,0.00,,---,0.00,VWS V14.01,2013-12-04 11:06:00,
2013-12-04 06:11:00,36.4,33.2,30.09,NNW,338,0.0,0.0,88,0.00,,---,0.00,VWS V14.01,2013-12-04 11:11:00,
2013-12-04 06:16:00,36.5,33.6,30.09,NNW,338,0.0,1.0,89,0.00,,---,0.00,VWS V14.01,2013-12-04 11:16:00,
2013-12-04 06:21:00,36.7,33.8,30.09,North,359,2.0,3.0,89,0.00,,---,0.00,VWS V14.01,2013-12-04 11:21:00,
2013-12-04 06:26:00,37.0,34.1,30.09,North,356,0.0,2.0,89,0.00,,---,0.00,VWS V14.01,2013-12-04 11:26:00,
2013-12-04 06:31:00,37.1,34.2,30.08,North,356,0.0,2.0,89,0.00,,---,0.00,VWS V14.01,2013-12-04 11:31:00,
2013-12-04 06:36:00,37.3,34.4,30.08,North,356,0.0,0.0,89,0.00,,---,0.00,VWS V14.01,2013-12-04 11:36:00,
2013-12-04 06:41:00,37.4,34.5,30.09,North,356,0.0,0.0,89,0.00,,---,0.00,VWS V14.01,2013-12-04 11:41:00,
2013-12-04 06:46:00,37.4,34.5,30.09,North,356,0.0,0.0,89,0.00,,---,0.00,VWS V14.01,2013-12-04 11:46:00,
2013-12-04 06:51:00,37.5,34.6,30.10,North,351,1.0,3.0,89,0.00,,---,0.00,VWS V14.01,2013-12-04 11:51:00,
2013-12-04 06:56:00,37.7,34.5,30.10,North,351,0.0,0.0,88,0.00,,---,0.00,VWS V14.01,2013-12-04 11:56:00,
2013-12-04 07:01:00,37.7,34.5,30.10,North,350,0.0,0.0,88,0.00,,---,0.00,VWS V14.01,2013-12-04 12:01:00,
2013-12-04 07:06:00,37.8,34.6,30.10,North,350,1.0,3.0,88,0.00,,---,0.00,VWS V14.01,2013-12-04 12:06:00,
2013-12-04 07:11:00,37.8,34.6,30.10,North,351,2.0,2.0,88,0.00,,---,0.00,VWS V14.01,2013-12-04 12:11:00,
2013-12-04 07:16:00,37.9,34.7,30.10,North,351,0.0,1.0,88,0.00,,---,0.00,VWS V14.01,2013-12-04 12:16:00,
2013-12-04 07:21:00,38.0,34.5,30.10,North,351,0.0,1.0,87,0.00,,---,0.00,VWS V14.01,2013-12-04 12:21:00,
2013-12-04 07:26:00,38.1,34.6,30.10,North,351,2.0,2.0,87,0.00,,---,0.00,VWS V14.01,2013-12-04 12:26:00,
2013-12-04 07:31:00,38.2,34.7,30.11,North,351,1.0,3.0,87,0.00,,---,0.00,VWS V14.01,2013-12-04 12:31:00,
2013-12-04 07:36:00,38.4,34.9,30.11,North,351,0.0,3.0,87,0.00,,---,0.00,VWS V14.01,2013-12-04 12:36:00,
2013-12-04 07:41:00,38.5,35.0,30.11,North,351,0.0,0.0,87,0.00,,---,0.00,VWS V14.01,2013-12-04 12:41:00,
2013-12-04 07:46:00,38.7,35.2,30.11,North,351,0.0,0.0,87,0.00,,---,0.00,VWS V14.01,2013-12-04 12:46:00,
2013-12-04 07:51:00,38.8,35.3,30.11,North,351,0.0,0.0,87,0.00,,---,0.00,VWS V14.01,2013-12-04 12:51:00,
2013-12-04 07:56:00,38.9,35.4,30.10,North,351,0.0,0.0,87,0.00,,---,0.00,VWS V14.01,2013-12-04 12:56:00,
2013-12-04 08:01:00,38.9,35.4,30.10,North,352,0.0,1.0,87,0.00,,---,0.00,VWS V14.01,2013-12-04 13:01:00,
2013-12-04 08:06:00,39.0,35.5,30.10,North,352,0.0,0.0,87,0.00,,---,0.00,VWS V14.01,2013-12-04 13:06:00,
2013-12-04 08:11:00,39.1,35.6,30.11,North,352,0.0,0.0,87,0.00,,---,0.00,VWS V14.01,2013-12-04 13:11:00,
2013-12-04 08:16:00,39.1,35.6,30.11,North,352,0.0,0.0,87,0.00,,---,0.00,VWS V14.01,2013-12-04 13:16:00,
2013-12-04 08:21:00,39.3,35.8,30.10,NNE,30,0.0,1.0,87,0.00,,---,0.00,VWS V14.01,2013-12-04 13:21:00,
2013-12-04 08:26:00,39.3,35.8,30.10,NNE,30,0.0,0.0,87,0.00,,---,0.00,VWS V14.01,2013-12-04 13:26:00,
2013-12-04 08:31:00,39.3,35.5,30.10,NE,53,0.0,5.0,86,0.00,,---,0.00,VWS V14.01,2013-12-04 13:31:00,
2013-12-04 08:36:00,39.3,35.5,30.10,NE,52,2.0,4.0,86,0.00,,---,0.00,VWS V14.01,2013-12-04 13:36:00,
2013-12-04 08:41:00,39.5,36.0,30.10,NE,35,0.0,4.0,87,0.00,,---,0.00,VWS V14.01,2013-12-04 13:41:00,
2013-12-04 08:46:00,39.7,36.2,30.10,NE,37,0.0,4.0,87,0.00,,---,0.00,VWS V14.01,2013-12-04 13:46:00,
2013-12-04 08:51:00,40.1,36.8,30.11,NNE,22,2.0,4.0,88,0.00,,---,0.00,VWS V14.01,2013-12-04 13:51:00,
2013-12-04 08:56:00,40.9,37.6,30.11,NNE,23,0.0,3.0,88,0.00,,---,0.00,VWS V14.01,2013-12-04 13:56:00,
2013-12-04 09:01:00,41.7,37.8,30.12,NE,47,0.0,3.0,86,0.00,,---,0.00,VWS V14.01,2013-12-04 14:01:00,
2013-12-04 09:06:00,42.7,38.5,30.12,NE,47,0.0,0.0,85,0.00,,---,0.00,VWS V14.01,2013-12-04 14:06:00,
2013-12-04 09:11:00,43.1,38.3,30.13,NE,47,0.0,2.0,83,0.00,,---,0.00,VWS V14.01,2013-12-04 14:11:00,
2013-12-04 09:16:00,43.2,38.4,30.13,NE,48,0.0,2.0,83,0.00,,---,0.00,VWS V14.01,2013-12-04 14:16:00,
2013-12-04 09:21:00,43.3,38.5,30.14,NE,48,0.0,3.0,83,0.00,,---,0.00,VWS V14.01,2013-12-04 14:21:00,
2013-12-04 09:26:00,43.3,37.9,30.14,NE,48,0.0,2.0,81,0.00,,---,0.00,VWS V14.01,2013-12-04 14:26:00,
2013-12-04 09:31:00,43.3,37.6,30.14,NE,48,0.0,1.0,80,0.00,,---,0.00,VWS V14.01,2013-12-04 14:31:00,
2013-12-04 09:36:00,43.3,37.6,30.14,NE,48,0.0,0.0,80,0.00,,---,0.00,VWS V14.01,2013-12-04 14:36:00,
2013-12-04 09:41:00,43.3,37.6,30.14,NE,48,0.0,0.0,80,0.00,,---,0.00,VWS V14.01,2013-12-04 14:41:00,
2013-12-04 09:46:00,43.4,37.7,30.15,NE,48,0.0,0.0,80,0.00,,---,0.00,VWS V14.01,2013-12-04 14:46:00,
2013-12-04 09:51:00,43.6,37.8,30.15,NE,48,0.0,0.0,80,0.00,,---,0.00,VWS V14.01,2013-12-04 14:51:00,
2013-12-04 09:56:00,43.8,38.0,30.15,NE,48,0.0,0.0,80,0.00,,---,0.00,VWS V14.01,2013-12-04 14:56:00,
2013-12-04 10:01:00,43.9,38.1,30.15,NE,48,0.0,0.0,80,0.00,,---,0.00,VWS V14.01,2013-12-04 15:01:00,
2013-12-04 10:06:00,44.2,38.4,30.15,NE,48,0.0,0.0,80,0.00,,---,0.00,VWS V14.01,2013-12-04 15:06:00,
2013-12-04 10:11:00,44.3,38.2,30.15,NE,48,0.0,0.0,79,0.00,,---,0.00,VWS V14.01,2013-12-04 15:11:00,
2013-12-04 10:16:00,44.6,38.5,30.14,NE,48,0.0,0.0,79,0.00,,---,0.00,VWS V14.01,2013-12-04 15:16:00,
2013-12-04 10:21:00,45.0,38.6,30.15,NE,48,0.0,0.0,78,0.00,,---,0.00,VWS V14.01,2013-12-04 15:21:00,
2013-12-04 10:26:00,45.4,39.0,30.15,NE,48,0.0,0.0,78,0.00,,---,0.00,VWS V14.01,2013-12-04 15:26:00,
2013-12-04 10:31:00,45.4,38.3,30.15,NE,48,0.0,1.0,76,0.00,,---,0.00,VWS V14.01,2013-12-04 15:31:00,
2013-12-04 10:36:00,45.6,38.5,30.15,NE,48,0.0,0.0,76,0.00,,---,0.00,VWS V14.01,2013-12-04 15:36:00,
2013-12-04 10:41:00,45.6,38.5,30.15,NE,48,0.0,0.0,76,0.00,,---,0.00,VWS V14.01,2013-12-04 15:41:00,
2013-12-04 10:46:00,45.8,38.7,30.15,NE,48,0.0,1.0,76,0.00,,---,0.00,VWS V14.01,2013-12-04 15:46:00,
2013-12-04 10:51:00,46.2,39.4,30.15,NE,51,0.0,1.0,77,0.00,,---,0.00,VWS V14.01,2013-12-04 15:51:00,
2013-12-04 10:56:00,46.3,38.8,30.15,NE,51,0.0,1.0,75,0.00,,---,0.00,VWS V14.01,2013-12-04 15:56:00,
2013-12-04 11:01:00,46.7,39.2,30.15,NE,51,0.0,1.0,75,0.00,,---,0.00,VWS V14.01,2013-12-04 16:01:00,
2013-12-04 11:06:00,47.1,39.9,30.14,NE,51,0.0,0.0,76,0.00,,---,0.00,VWS V14.01,2013-12-04 16:06:00,
2013-12-04 11:11:00,47.1,39.2,30.15,NE,51,0.0,0.0,74,0.00,,---,0.00,VWS V14.01,2013-12-04 16:11:00,
2013-12-04 11:16:00,47.2,39.7,30.15,NE,51,1.0,2.0,75,0.00,,---,0.00,VWS V14.01,2013-12-04 16:16:00,
2013-12-04 11:21:00,47.2,39.7,30.15,NE,52,2.0,2.0,75,0.00,,---,0.00,VWS V14.01,2013-12-04 16:21:00,
2013-12-04 11:26:00,47.3,39.8,30.15,NE,52,0.0,2.0,75,0.00,,---,0.00,VWS V14.01,2013-12-04 16:26:00,
2013-12-04 11:31:00,47.6,39.7,30.14,East,85,2.0,2.0,74,0.00,,---,0.00,VWS V14.01,2013-12-04 16:31:00,
2013-12-04 11:36:00,47.5,39.6,30.14,East,85,0.0,2.0,74,0.00,,---,0.00,VWS V14.01,2013-12-04 16:36:00,
2013-12-04 11:41:00,47.5,39.6,30.14,East,89,2.0,2.0,74,0.00,,---,0.00,VWS V14.01,2013-12-04 16:41:00,
2013-12-04 11:46:00,47.4,39.2,30.14,East,90,0.0,2.0,73,0.00,,---,0.00,VWS V14.01,2013-12-04 16:46:00,
2013-12-04 11:51:00,47.4,39.2,30.14,East,90,0.0,3.0,73,0.00,,---,0.00,VWS V14.01,2013-12-04 16:51:00,
2013-12-04 11:56:00,47.4,39.5,30.13,East,90,0.0,0.0,74,0.00,,---,0.00,VWS V14.01,2013-12-04 16:56:00,
2013-12-04 12:01:00,47.8,40.3,30.13,East,93,3.0,3.0,75,0.00,,---,0.00,VWS V14.01,2013-12-04 17:01:00,
2013-12-04 12:06:00,48.3,40.4,30.13,East,93,0.0,1.0,74,0.00,,---,0.00,VWS V14.01,2013-12-04 17:06:00,
2013-12-04 12:11:00,48.2,40.3,30.12,NE,48,0.0,4.0,74,0.00,,---,0.00,VWS V14.01,2013-12-04 17:11:00,
2013-12-04 12:16:00,48.5,41.0,30.12,NE,48,0.0,3.0,75,0.00,,---,0.00,VWS V14.01,2013-12-04 17:16:00,
2013-12-04 12:21:00,48.7,40.8,30.12,NE,48,0.0,1.0,74,0.00,,---,0.00,VWS V14.01,2013-12-04 17:21:00,
2013-12-04 12:26:00,49.0,40.7,30.12,NE,48,2.0,3.0,73,0.00,,---,0.00,VWS V14.01,2013-12-04 17:26:00,
2013-12-04 12:31:00,49.0,40.7,30.12,NE,48,0.0,2.0,73,0.00,,---,0.00,VWS V14.01,2013-12-04 17:31:00,
2013-12-04 12:36:00,49.1,40.8,30.12,NE,48,2.0,3.0,73,0.00,,---,0.00,VWS V14.01,2013-12-04 17:36:00,
2013-12-04 12:41:00,49.1,41.2,30.11,NE,48,0.0,1.0,74,0.00,,---,0.00,VWS V14.01,2013-12-04 17:41:00,
2013-12-04 12:46:00,49.4,41.1,30.11,ENE,71,1.0,4.0,73,0.00,,---,0.00,VWS V14.01,2013-12-04 17:46:00,
2013-12-04 12:51:00,49.4,41.5,30.10,ENE,77,2.0,3.0,74,0.00,,---,0.00,VWS V14.01,2013-12-04 17:51:00,
2013-12-04 12:56:00,49.4,41.5,30.10,ENE,76,1.0,4.0,74,0.00,,---,0.00,VWS V14.01,2013-12-04 17:56:00,
2013-12-04 13:01:00,49.4,41.1,30.10,East,89,2.0,4.0,73,0.00,,---,0.00,VWS V14.01,2013-12-04 18:01:00,
2013-12-04 13:06:00,49.7,41.4,30.10,ENE,77,3.0,4.0,73,0.00,,---,0.00,VWS V14.01,2013-12-04 18:06:00,
2013-12-04 13:11:00,49.8,41.9,30.10,East,98,2.0,5.0,74,0.00,,---,0.00,VWS V14.01,2013-12-04 18:11:00,
2013-12-04 13:16:00,49.9,41.2,30.09,ENE,78,2.0,6.0,72,0.00,,---,0.00,VWS V14.01,2013-12-04 18:16:00,
2013-12-04 13:21:00,50.0,41.7,30.09,East,81,4.0,4.0,73,0.00,,---,0.00,VWS V14.01,2013-12-04 18:21:00,
2013-12-04 13:26:00,50.0,41.3,30.09,East,82,3.0,5.0,72,0.00,,---,0.00,VWS V14.01,2013-12-04 18:26:00,
2013-12-04 13:31:00,49.9,41.2,30.09,East,79,5.0,5.0,72,0.00,,---,0.00,VWS V14.01,2013-12-04 18:31:00,
2013-12-04 13:36:00,49.8,41.2,30.09,East,94,3.0,5.0,72,0.00,,---,0.00,VWS V14.01,2013-12-04 18:36:00,
2013-12-04 13:41:00,50.0,41.7,30.08,NNE,32,0.0,5.0,73,0.00,,---,0.00,VWS V14.01,2013-12-04 18:41:00,
2013-12-04 13:46:00,50.3,41.6,30.08,East,85,2.0,4.0,72,0.00,,---,0.00,VWS V14.01,2013-12-04 18:46:00,
2013-12-04 13:51:00,50.5,41.5,30.08,East,86,0.0,3.0,71,0.00,,---,0.00,VWS V14.01,2013-12-04 18:51:00,
2013-12-04 13:56:00,50.9,42.2,30.08,ENE,59,2.0,4.0,72,0.00,,---,0.00,VWS V14.01,2013-12-04 18:56:00,
2013-12-04 14:01:00,51.1,42.0,30.08,East,97,2.0,5.0,71,0.00,,---,0.00,VWS V14.01,2013-12-04 19:01:00,
2013-12-04 14:06:00,51.1,42.4,30.08,ENE,66,3.0,6.0,72,0.00,,---,0.00,VWS V14.01,2013-12-04 19:06:00,
2013-12-04 14:11:00,51.1,42.8,30.08,NE,52,0.0,4.0,73,0.00,,---,0.00,VWS V14.01,2013-12-04 19:11:00,
2013-12-04 14:16:00,51.3,42.6,30.08,ENE,72,0.0,4.0,72,0.00,,---,0.00,VWS V14.01,2013-12-04 19:16:00,
2013-12-04 14:21:00,51.2,42.5,30.08,ESE,120,1.0,5.0,72,0.00,,---,0.00,VWS V14.01,2013-12-04 19:21:00,
2013-12-04 14:26:00,51.1,42.8,30.08,East,91,0.0,4.0,73,0.00,,---,0.00,VWS V14.01,2013-12-04 19:26:00,
2013-12-04 14:31:00,51.0,42.7,30.08,SSE,148,2.0,4.0,73,0.00,,---,0.00,VWS V14.01,2013-12-04 19:31:00,
2013-12-04 14:36:00,51.1,43.1,30.09,SSE,153,0.0,3.0,74,0.00,,---,0.00,VWS V14.01,2013-12-04 19:36:00,
2013-12-04 14:41:00,51.2,43.2,30.09,South,174,0.0,4.0,74,0.00,,---,0.00,VWS V14.01,2013-12-04 19:41:00,
2013-12-04 14:46:00,51.2,43.2,30.09,ESE,105,0.0,3.0,74,0.00,,---,0.00,VWS V14.01,2013-12-04 19:46:00,
2013-12-04 14:51:00,51.2,43.2,30.09,East,100,0.0,1.0,74,0.00,,---,0.00,VWS V14.01,2013-12-04 19:51:00,
2013-12-04 14:56:00,51.2,43.2,30.09,ENE,76,3.0,4.0,74,0.00,,---,0.00,VWS V14.01,2013-12-04 19:56:00,
2013-12-04 15:01:00,51.2,43.2,30.09,ENE,76,0.0,3.0,74,0.00,,---,0.00,VWS V14.01,2013-12-04 20:01:00,
2013-12-04 15:06:00,51.1,43.1,30.09,East,95,1.0,4.0,74,0.00,,---,0.00,VWS V14.01,2013-12-04 20:06:00,
2013-12-04 15:10:00,51.1,43.1,30.09,ENE,72,0.0,3.0,74,0.00,,---,0.00,VWS V14.01,2013-12-04 20:10:00,
2013-12-04 15:15:00,51.0,43.0,30.09,ENE,72,0.0,3.0,74,0.00,,---,0.00,VWS V14.01,2013-12-04 20:15:00,
2013-12-04 15:20:00,51.0,43.4,30.10,ENE,72,0.0,0.0,75,0.00,,---,0.00,VWS V14.01,2013-12-04 20:20:00,
2013-12-04 15:25:00,51.0,43.4,30.10,ENE,71,0.0,3.0,75,0.00,,---,0.00,VWS V14.01,2013-12-04 20:25:00,
2013-12-04 15:30:00,51.0,43.4,30.10,ENE,71,0.0,2.0,75,0.00,,---,0.00,VWS V14.01,2013-12-04 20:30:00,
2013-12-04 15:35:00,50.9,43.3,30.10,East,98,0.0,4.0,75,0.00,,---,0.00,VWS V14.01,2013-12-04 20:35:00,
2013-12-04 15:40:00,50.9,43.3,30.11,East,98,0.0,1.0,75,0.00,,---,0.00,VWS V14.01,2013-12-04 20:40:00,
2013-12-04 15:45:00,50.9,43.6,30.11,East,96,1.0,3.0,76,0.00,,---,0.00,VWS V14.01,2013-12-04 20:45:00,
2013-12-04 15:50:00,50.9,43.6,30.11,ENE,62,0.0,3.0,76,0.00,,---,0.00,VWS V14.01,2013-12-04 20:50:00,
2013-12-04 15:55:00,50.9,43.6,30.11,ENE,62,0.0,1.0,76,0.00,,---,0.00,VWS V14.01,2013-12-04 20:55:00,
2013-12-04 16:00:00,50.9,43.6,30.11,ESE,115,0.0,2.0,76,0.00,,---,0.00,VWS V14.01,2013-12-04 21:00:00,
2013-12-04 16:05:00,50.8,43.5,30.11,East,98,1.0,3.0,76,0.00,,---,0.00,VWS V14.01,2013-12-04 21:05:00,
2013-12-04 16:10:00,50.8,43.5,30.11,East,80,1.0,3.0,76,0.00,,---,0.00,VWS V14.01,2013-12-04 21:10:00,
2013-12-04 16:15:00,50.7,43.4,30.11,ENE,73,0.0,2.0,76,0.00,,---,0.00,VWS V14.01,2013-12-04 21:15:00,
2013-12-04 16:20:00,50.7,43.4,30.11,ENE,73,0.0,1.0,76,0.00,,---,0.00,VWS V14.01,2013-12-04 21:20:00,
2013-12-04 16:25:00,50.7,43.4,30.11,ENE,73,0.0,3.0,76,0.00,,---,0.00,VWS V14.01,2013-12-04 21:25:00,
2013-12-04 16:30:00,50.6,43.7,30.11,ENE,73,0.0,0.0,77,0.00,,---,0.00,VWS V14.01,2013-12-04 21:30:00,
2013-12-04 16:35:00,50.6,43.7,30.11,ENE,73,1.0,1.0,77,0.00,,---,0.00,VWS V14.01,2013-12-04 21:35:00,
2013-12-04 16:40:00,50.5,43.6,30.11,ENE,73,0.0,0.0,77,0.00,,---,0.00,VWS V14.01,2013-12-04 21:40:00,
2013-12-04 16:45:00,50.4,43.5,30.11,ENE,73,0.0,0.0,77,0.00,,---,0.00,VWS V14.01,2013-12-04 21:45:00,
2013-12-04 16:50:00,50.4,43.5,30.11,NE,53,0.0,0.0,77,0.00,,---,0.00,VWS V14.01,2013-12-04 21:50:00,
2013-12-04 16:55:00,50.2,43.3,30.11,NE,49,0.0,2.0,77,0.00,,---,0.00,VWS V14.01,2013-12-04 21:55:00,
2013-12-04 17:00:00,50.1,42.8,30.11,NE,34,2.0,2.0,76,0.00,,---,0.00,VWS V14.01,2013-12-04 22:00:00,
2013-12-04 17:05:00,49.9,42.7,30.11,NNE,30,0.0,0.0,76,0.00,,---,0.00,VWS V14.01,2013-12-04 22:05:00,
2013-12-04 17:10:00,49.7,42.1,30.11,NNE,30,0.0,0.0,75,0.00,,---,0.00,VWS V14.01,2013-12-04 22:10:00,
2013-12-04 17:15:00,49.6,42.0,30.12,NNE,30,0.0,0.0,75,0.00,,---,0.00,VWS V14.01,2013-12-04 22:15:00,
2013-12-04 17:20:00,49.5,42.3,30.12,NNE,30,0.0,0.0,76,0.00,,---,0.00,VWS V14.01,2013-12-04 22:20:00,
2013-12-04 17:25:00,49.4,42.2,30.12,NNE,30,0.0,1.0,76,0.00,,---,0.00,VWS V14.01,2013-12-04 22:25:00,
2013-12-04 17:30:00,49.2,42.0,30.12,NNE,30,2.0,2.0,76,0.00,,---,0.00,VWS V14.01,2013-12-04 22:30:00,
2013-12-04 17:35:00,49.1,41.9,30.12,NNE,30,0.0,2.0,76,0.00,,---,0.00,VWS V14.01,2013-12-04 22:35:00,
2013-12-04 17:40:00,49.0,42.1,30.12,NNE,30,0.0,0.0,77,0.00,,---,0.00,VWS V14.01,2013-12-04 22:40:00,
2013-12-04 17:45:00,48.9,42.0,30.12,NNE,30,0.0,0.0,77,0.00,,---,0.00,VWS V14.01,2013-12-04 22:45:00,
2013-12-04 17:50:00,48.9,42.0,30.13,NNE,30,0.0,1.0,77,0.00,,---,0.00,VWS V14.01,2013-12-04 22:50:00,
2013-12-04 17:55:00,48.8,41.9,30.13,NNE,30,0.0,0.0,77,0.00,,---,0.00,VWS V14.01,2013-12-04 22:55:00,
2013-12-04 18:00:00,48.8,41.9,30.13,NNE,30,0.0,0.0,77,0.00,,---,0.00,VWS V14.01,2013-12-04 23:00:00,
2013-12-04 18:05:00,48.8,41.9,30.14,NNE,30,0.0,0.0,77,0.00,,---,0.00,VWS V14.01,2013-12-04 23:05:00,
2013-12-04 18:10:00,48.7,41.8,30.14,NNE,30,0.0,1.0,77,0.00,,---,0.00,VWS V14.01,2013-12-04 23:10:00,
2013-12-04 18:15:00,48.7,42.2,30.14,NNE,30,0.0,0.0,78,0.00,,---,0.00,VWS V14.01,2013-12-04 23:15:00,
2013-12-04 18:20:00,48.7,42.2,30.14,NNE,30,0.0,0.0,78,0.00,,---,0.00,VWS V14.01,2013-12-04 23:20:00,
2013-12-04 18:25:00,48.7,42.2,30.14,NNE,30,0.0,2.0,78,0.00,,---,0.00,VWS V14.01,2013-12-04 23:25:00,
2013-12-04 18:30:00,48.7,42.2,30.14,NNE,30,0.0,0.0,78,0.00,,---,0.00,VWS V14.01,2013-12-04 23:30:00,
2013-12-04 18:35:00,48.6,42.4,30.14,NNE,30,1.0,2.0,79,0.00,,---,0.00,VWS V14.01,2013-12-04 23:35:00,
2013-12-04 18:40:00,48.6,42.4,30.14,NE,34,0.0,1.0,79,0.00,,---,0.00,VWS V14.01,2013-12-04 23:40:00,
2013-12-04 18:45:00,48.6,42.4,30.14,NNE,32,2.0,3.0,79,0.00,,---,0.00,VWS V14.01,2013-12-04 23:45:00,
2013-12-04 18:50:00,48.7,42.8,30.14,NE,56,0.0,4.0,80,0.00,,---,0.00,VWS V14.01,2013-12-04 23:50:00,
2013-12-04 18:55:00,48.7,42.8,30.15,NE,56,0.0,0.0,80,0.00,,---,0.00,VWS V14.01,2013-12-04 23:55:00,
2013-12-04 19:00:00,48.7,42.8,30.15,ENE,63,2.0,3.0,80,0.00,,---,0.00,VWS V14.01,2013-12-05 00:00:00,
2013-12-04 19:05:00,48.7,42.8,30.15,NE,52,0.0,4.0,80,0.00,,---,0.00,VWS V14.01,2013-12-05 00:05:00,
2013-12-04 19:10:00,48.8,42.9,30.15,NE,52,0.0,1.0,80,0.00,,---,0.00,VWS V14.01,2013-12-05 00:10:00,
2013-12-04 19:15:00,48.8,42.9,30.15,NE,52,0.0,1.0,80,0.00,,---,0.00,VWS V14.01,2013-12-05 00:15:00,
2013-12-04 19:20:00,48.8,42.9,30.15,ENE,68,2.0,4.0,80,0.00,,---,0.00,VWS V14.01,2013-12-05 00:20:00,
2013-12-04 19:25:00,48.8,42.9,30.15,NE,55,0.0,1.0,80,0.00,,---,0.00,VWS V14.01,2013-12-05 00:25:00,
2013-12-04 19:30:00,48.8,42.9,30.15,NNE,29,2.0,4.0,80,0.00,,---,0.00,VWS V14.01,2013-12-05 00:30:00,
2013-12-04 19:35:00,48.8,42.9,30.15,NE,34,2.0,4.0,80,0.00,,---,0.00,VWS V14.01,2013-12-05 00:35:00,
2013-12-04 19:40:00,48.8,43.2,30.14,NE,34,0.0,2.0,81,0.00,,---,0.00,VWS V14.01,2013-12-05 00:40:00,
2013-12-04 19:45:00,48.8,43.2,30.14,NE,54,0.0,3.0,81,0.00,,---,0.00,VWS V14.01,2013-12-05 00:45:00,
2013-12-04 19:50:00,48.9,43.3,30.14,NNE,32,0.0,4.0,81,0.00,,---,0.00,VWS V14.01,2013-12-05 00:50:00,
2013-12-04 19:55:00,48.9,43.3,30.14,NNE,32,0.0,1.0,81,0.00,,---,0.00,VWS V14.01,2013-12-05 00:55:00,
2013-12-04 20:00:00,48.9,43.0,30.14,NNE,32,0.0,1.0,80,0.00,,---,0.00,VWS V14.01,2013-12-05 01:00:00,
2013-12-04 20:05:00,48.9,43.0,30.14,NE,48,0.0,5.0,80,0.00,,---,0.00,VWS V14.01,2013-12-05 01:05:00,
2013-12-04 20:10:00,49.0,43.1,30.14,ENE,71,0.0,4.0,80,0.00,,---,0.00,VWS V14.01,2013-12-05 01:10:00,
2013-12-04 20:15:00,49.1,43.2,30.13,NE,42,0.0,3.0,80,0.00,,---,0.00,VWS V14.01,2013-12-05 01:15:00,
2013-12-04 20:20:00,49.1,43.2,30.13,ENE,58,3.0,5.0,80,0.00,,---,0.00,VWS V14.01,2013-12-05 01:20:00,
2013-12-04 20:25:00,49.1,42.9,30.13,NE,48,0.0,4.0,79,0.00,,---,0.00,VWS V14.01,2013-12-05 01:25:00,
2013-12-04 20:30:00,49.1,42.9,30.13,NE,55,0.0,4.0,79,0.00,,---,0.00,VWS V14.01,2013-12-05 01:30:00,
2013-12-04 20:35:00,49.1,42.9,30.14,ENE,61,0.0,3.0,79,0.00,,---,0.00,VWS V14.01,2013-12-05 01:35:00,
2013-12-04 20:40:00,49.1,42.9,30.14,NE,53,2.0,4.0,79,0.00,,---,0.00,VWS V14.01,2013-12-05 01:40:00,
2013-12-04 20:45:00,49.1,42.9,30.14,NE,41,1.0,3.0,79,0.00,,---,0.00,VWS V14.01,2013-12-05 01:45:00,
2013-12-04 20:50:00,49.1,42.9,30.14,NNE,30,0.0,4.0,79,0.00,,---,0.00,VWS V14.01,2013-12-05 01:50:00,
2013-12-04 20:55:00,49.1,42.9,30.14,NNE,30,0.0,1.0,79,0.00,,---,0.00,VWS V14.01,2013-12-05 01:55:00,
2013-12-04 21:00:00,49.0,42.8,30.14,NNE,30,2.0,3.0,79,0.00,,---,0.00,VWS V14.01,2013-12-05 02:00:00,
2013-12-04 21:05:00,49.0,42.8,30.14,NNE,30,0.0,0.0,79,0.00,,---,0.00,VWS V14.01,2013-12-05 02:05:00,
2013-12-04 21:10:00,49.0,42.8,30.13,NNE,30,0.0,1.0,79,0.00,,---,0.00,VWS V14.01,2013-12-05 02:10:00,
2013-12-04 21:15:00,49.0,42.8,30.13,NNE,30,0.0,2.0,79,0.00,,---,0.00,VWS V14.01,2013-12-05 02:15:00,
2013-12-04 21:20:00,49.0,42.8,30.13,NNE,30,0.0,0.0,79,0.00,,---,0.00,VWS V14.01,2013-12-05 02:20:00,
2013-12-04 21:25:00,48.9,42.7,30.12,NNE,25,4.0,6.0,79,0.00,,---,0.00,VWS V14.01,2013-12-05 02:25:00,
2013-12-04 21:30:00,48.9,42.7,30.13,NE,34,0.0,4.0,79,0.00,,---,0.00,VWS V14.01,2013-12-05 02:30:00,
2013-12-04 21:35:00,48.9,42.7,30.13,NE,34,0.0,1.0,79,0.00,,---,0.00,VWS V14.01,2013-12-05 02:35:00,
2013-12-04 21:40:00,48.9,42.7,30.13,NE,34,0.0,0.0,79,0.00,,---,0.00,VWS V14.01,2013-12-05 02:40:00,
2013-12-04 21:45:00,48.9,42.7,30.14,NE,35,0.0,1.0,79,0.00,,---,0.00,VWS V14.01,2013-12-05 02:45:00,
2013-12-04 21:50:00,48.8,42.6,30.14,NE,35,0.0,0.0,79,0.00,,---,0.00,VWS V14.01,2013-12-05 02:50:00,
2013-12-04 21:55:00,48.8,42.9,30.14,NE,35,0.0,1.0,80,0.00,,---,0.00,VWS V14.01,2013-12-05 02:55:00,
2013-12-04 22:00:00,48.8,42.9,30.14,NE,35,0.0,1.0,80,0.00,,---,0.00,VWS V14.01,2013-12-05 03:00:00,
2013-12-04 22:05:00,48.8,42.9,30.14,NE,35,0.0,0.0,80,0.00,,---,0.00,VWS V14.01,2013-12-05 03:05:00,
2013-12-04 22:10:00,48.8,42.9,30.14,NE,35,0.0,2.0,80,0.00,,---,0.00,VWS V14.01,2013-12-05 03:10:00,
2013-12-04 22:15:00,48.8,42.9,30.14,NE,35,0.0,0.0,80,0.00,,---,0.00,VWS V14.01,2013-12-05 03:15:00,
2013-12-04 22:20:00,48.7,42.8,30.14,NE,35,0.0,0.0,80,0.00,,---,0.00,VWS V14.01,2013-12-05 03:20:00,
2013-12-04 22:25:00,48.7,42.8,30.14,NE,35,0.0,1.0,80,0.00,,---,0.00,VWS V14.01,2013-12-05 03:25:00,
2013-12-04 22:30:00,48.7,42.8,30.14,NE,35,0.0,3.0,80,0.00,,---,0.00,VWS V14.01,2013-12-05 03:30:00,
2013-12-04 22:35:00,48.7,43.1,30.14,NE,35,0.0,2.0,81,0.00,,---,0.00,VWS V14.01,2013-12-05 03:35:00,
2013-12-04 22:40:00,48.7,43.5,30.14,NE,55,0.0,6.0,82,0.00,,---,0.00,VWS V14.01,2013-12-05 03:40:00,
2013-12-04 22:45:00,48.7,44.1,30.13,East,96,1.0,3.0,84,0.00,,---,0.00,VWS V14.01,2013-12-05 03:45:00,
2013-12-04 22:50:00,48.7,44.1,30.13,NE,53,0.0,2.0,84,0.00,,---,0.00,VWS V14.01,2013-12-05 03:50:00,
2013-12-04 22:55:00,48.6,44.3,30.13,ENE,59,0.0,1.0,85,0.00,,---,0.00,VWS V14.01,2013-12-05 03:55:00,
2013-12-04 23:00:00,48.6,44.3,30.13,ENE,59,0.0,2.0,85,0.00,,---,0.00,VWS V14.01,2013-12-05 04:00:00,
2013-12-04 23:05:00,48.5,44.2,30.13,East,86,2.0,4.0,85,0.00,,---,0.00,VWS V14.01,2013-12-05 04:05:00,
2013-12-04 23:10:00,48.4,44.1,30.13,NE,46,1.0,4.0,85,0.00,,---,0.00,VWS V14.01,2013-12-05 04:10:00,
2013-12-04 23:15:00,48.3,44.3,30.13,East,85,2.0,4.0,86,0.00,,---,0.00,VWS V14.01,2013-12-05 04:15:00,
2013-12-04 23:20:00,48.3,44.6,30.14,ESE,123,0.0,4.0,87,0.00,,---,0.00,VWS V14.01,2013-12-05 04:20:00,
2013-12-04 23:25:00,48.3,44.6,30.14,ESE,103,1.0,1.0,87,0.00,,---,0.00,VWS V14.01,2013-12-05 04:25:00,
2013-12-04 23:30:00,48.2,44.8,30.14,ENE,75,0.0,0.0,88,0.00,,---,0.00,VWS V14.01,2013-12-05 04:30:00,
2013-12-04 23:35:00,48.3,44.9,30.14,East,89,2.0,3.0,88,0.00,,---,0.00,VWS V14.01,2013-12-05 04:35:00,
2013-12-04 23:40:00,48.3,45.2,30.15,East,89,0.0,1.0,89,0.00,,---,0.00,VWS V14.01,2013-12-05 04:40:00,
2013-12-04 23:45:00,48.2,45.1,30.14,East,89,0.0,0.0,89,0.00,,---,0.00,VWS V14.01,2013-12-05 04:45:00,
2013-12-04 23:50:00,48.2,45.1,30.14,East,89,0.0,0.0,89,0.00,,---,0.00,VWS V14.01,2013-12-05 04:50:00,
2013-12-04 23:55:00,48.2,45.1,30.14,East,89,0.0,0.0,89,0.00,,---,0.00,VWS V14.01,2013-12-05 04:55:00,